This is the latest recevied weather packets stored in our database for station/object VK3BKO-13. If no packets are shown the sender has not sent any weather packets the latest 10 day(s).
| Time | Temp. | Humidity | Pressure | Rain* | Wind** | Luminosity | Snow |
|---|---|---|---|---|---|---|---|
| 1777704424 | 24.44° C | 44% | 1014.3 hPa | 0 mm | - | 48 W/m² | - |
| 1777703524 | 25° C | 44% | 1014.3 hPa | 0 mm | - | 56 W/m² | - |
| 1777702624 | 25° C | 44% | 1014.3 hPa | 0 mm | - | 96 W/m² | - |
| 1777701724 | 25° C | 46% | 1014.3 hPa | 0 mm | - | 116 W/m² | - |
| 1777700824 | 24.44° C | 47% | 1014.3 hPa | 0 mm | - | 129 W/m² | - |
| 1777699924 | 23.89° C | 48% | 1014.6 hPa | 0 mm | - | 168 W/m² | - |
| 1777699024 | 23.89° C | 48% | 1014.6 hPa | 0 mm | - | 153 W/m² | - |
| 1777698124 | 23.89° C | 49% | 1014.6 hPa | 0 mm | - | 135 W/m² | - |
| 1777697224 | 23.33° C | 49% | 1014.9 hPa | 0 mm | - | 163 W/m² | - |
| 1777696324 | 23.33° C | 49% | 1014.9 hPa | 0 mm | - | 179 W/m² | - |
| 1777695424 | 22.78° C | 50% | 1015.3 hPa | 0 mm | - | 142 W/m² | - |
| 1777694524 | 22.78° C | 49% | 1015.3 hPa | 0 mm | - | 124 W/m² | - |
| 1777693624 | 23.33° C | 49% | 1015.6 hPa | 0 mm | - | 126 W/m² | - |
| 1777692724 | 23.33° C | 48% | 1015.9 hPa | 0 mm | - | 156 W/m² | - |
| 1777691823 | 23.33° C | 48% | 1016.3 hPa | 0 mm | - | 197 W/m² | - |
| 1777690923 | 23.33° C | 48% | 1016.3 hPa | 0 mm | - | 191 W/m² | - |
| 1777690024 | 23.33° C | 49% | 1016.6 hPa | 0 mm | - | 242 W/m² | - |
| 1777689124 | 23.33° C | 48% | 1017 hPa | 0 mm | - | 228 W/m² | - |
| 1777688224 | 22.78° C | 50% | 1017 hPa | 0 mm | - | 244 W/m² | - |
| 1777687324 | 22.78° C | 49% | 1017.3 hPa | 0 mm | - | 203 W/m² | - |
| 1777686424 | 22.22° C | 50% | 1017.6 hPa | 0 mm | - | 187 W/m² | - |
| 1777685524 | 22.22° C | 49% | 1017.6 hPa | 0 mm | - | 154 W/m² | - |
| 1777684624 | 22.22° C | 49% | 1018 hPa | 0 mm | - | 177 W/m² | - |
| 1777683724 | 22.22° C | 49% | 1018.3 hPa | 0 mm | - | 125 W/m² | - |
| 1777682824 | 22.22° C | 48% | 1018.3 hPa | 0 mm | - | 183 W/m² | - |
* Rain latest hour (hover to see other rain measurements)
** Current wind speed in m/s (hover to see current wind gust speed)